Terminal Aerodrome Forecast
Issued by NWS Twin Cities, MN

Home | Current Version | Previous Version | Text Only | Print | Product List | Glossary On
Versions: 1 2 3 4 5 6 7 8 9 10 11 12 13 14 15 16 17 18 19 20 21
000
FTUS43 KMPX 301333 AAA
TAFSTC
TAF AMD
KSTC 301333Z 3014/3112 19008KT 6SM BR OVC005
     FM301530 19010KT P6SM SCT015
     FM301700 19011G17KT P6SM FEW200
     FM310000 17007KT P6SM SKC=

USA.gov is the U.S. government's official web portal to all federal, state and local government web resources and services.